| time (UTC) | temp C | wind direction | speed KPH | gust KPH | rain 1hr cm | rain 24hr cm | rain mn cm | humidity % | barometer mb |
| 20260504034549 | 10 | 1 | 0.0 | 4.8 | 0.00 | 0.00 | 0.00 | 60 | 1020.4 |
| 20260504033049 | 10 | 1 | 0.0 | 3.2 | 0.00 | 0.00 | 0.00 | 58 | 1020.2 |
| 20260504031550 | 10 | 1 | 0.0 | 0.0 | 0.00 | 0.00 | 0.00 | 58 | 1020.2 |
| 20260504030047 | 10 | 1 | 0.0 | 3.2 | 0.00 | 0.00 | 0.00 | 56 | 1020.3 |
| 20260504024602 | 11 | 1 | 0.0 | 0.0 | 0.00 | 0.00 | 0.00 | 55 | 1020.4 |
| 20260504023048 | 11 | 1 | 0.0 | 1.6 | 0.00 | 0.00 | 0.00 | 54 | 1020.3 |
| 20260504021547 | 12 | 1 | 0.0 | 3.2 | 0.00 | 0.00 | 0.00 | 57 | 1020.1 |
| 20260504020046 | 12 | 1 | 0.0 | 8.0 | 0.00 | 0.00 | 0.00 | 52 | 1020.1 |
| 20260504014546 | 12 | 1 | 3.2 | 11.3 | 0.00 | 0.00 | 0.00 | 50 | 1019.8 |
| 20260504013045 | 13 | 1 | 4.8 | 12.9 | 0.00 | 0.00 | 0.00 | 48 | 1019.6 |
| 20260504011545 | 13 | 1 | 3.2 | 9.7 | 0.00 | 0.00 | 0.00 | 48 | 1019.5 |
| 20260504010044 | 13 | 1 | 4.8 | 14.5 | 0.00 | 0.00 | 0.00 | 47 | 1019.3 |
| 20260504004547 | 12 | 1 | 6.4 | 14.5 | 0.00 | 0.00 | 0.00 | 48 | 1019.2 |
| 20260504003051 | 13 | 1 | 8.0 | 14.5 | 0.00 | 0.00 | 0.00 | 52 | 1018.9 |
| 20260504001545 | 13 | 1 | 9.7 | 16.1 | 0.00 | 0.00 | 0.00 | 47 | 1018.9 |
| 20260504000111 | 13 | 1 | 6.4 | 12.9 | 0.00 | 0.00 | 0.00 | 48 | 1019.0 |
| 20260503234550 | 14 | 1 | 8.0 | 12.9 | 0.00 | 0.00 | 0.00 | 48 | 1019.0 |
| 20260503233040 | 14 | 1 | 6.4 | 11.3 | 0.00 | 0.00 | 0.00 | 53 | 1018.8 |
| 20260503231539 | 15 | 1 | 3.2 | 8.0 | 0.00 | 0.00 | 0.00 | 48 | 1018.8 |
| 20260503230043 | 16 | 1 | 8.0 | 11.3 | 0.00 | 0.00 | 0.00 | 43 | 1018.8 |
| 20260503224538 | 17 | 1 | 1.6 | 11.3 | 0.00 | 0.00 | 0.00 | 43 | 1018.8 |
| 20260503223039 | 17 | 1 | 1.6 | 8.0 | 0.00 | 0.00 | 0.00 | 39 | 1018.8 |
| 20260503221547 | 17 | 1 | 3.2 | 4.8 | 0.00 | 0.00 | 0.00 | 41 | 1018.9 |
| 20260503220037 | 17 | 1 | 0.0 | 8.0 | 0.00 | 0.00 | 0.00 | 38 | 1018.9 |
| 20260503214536 | 17 | 1 | 1.6 | 9.7 | 0.00 | 0.00 | 0.00 | 39 | 1018.9 |
| 20260503213031 | 17 | 1 | 1.6 | 17.7 | 0.00 | 0.00 | 0.00 | 37 | 1019.1 |
| 20260503211528 | 17 | 1 | 3.2 | 8.0 | 0.00 | 0.00 | 0.00 | 41 | 1019.2 |
| 20260503210028 | 17 | 1 | 6.4 | 11.3 | 0.00 | 0.00 | 0.00 | 38 | 1019.2 |
| 20260503204526 | 17 | 1 | 4.8 | 8.0 | 0.00 | 0.00 | 0.00 | 39 | 1019.3 |
| 20260503203038 | 17 | 1 | 3.2 | 11.3 | 0.00 | 0.00 | 0.00 | 34 | 1019.5 |
| 20260503201532 | 17 | 1 | 1.6 | 16.1 | 0.00 | 0.00 | 0.00 | 34 | 1019.7 |
| 20260503200024 | 17 | 1 | 8.0 | 19.3 | 0.00 | 0.00 | 0.00 | 35 | 1020.1 |
| 20260503194522 | 17 | 1 | 0.0 | 6.4 | 0.00 | 0.00 | 0.00 | 35 | 1020.3 |
| 20260503193021 | 17 | 360 | 3.2 | 8.0 | 0.00 | 0.00 | 0.00 | 34 | 1020.6 |
| 20260503191519 | 16 | 1 | 0.0 | 12.9 | 0.00 | 0.00 | 0.00 | 41 | 1020.7 |
| 20260503190019 | 16 | 1 | 3.2 | 11.3 | 0.00 | 0.00 | 0.00 | 38 | 1020.9 |
| 20260503184518 | 16 | 1 | 4.8 | 12.9 | 0.00 | 0.00 | 0.00 | 35 | 1021.0 |
| 20260503183020 | 16 | 1 | 6.4 | 16.1 | 0.00 | 0.00 | 0.00 | 40 | 1021.0 |
| 20260503181518 | 16 | 1 | 3.2 | 14.5 | 0.00 | 0.00 | 0.00 | 40 | 1021.2 |
| 20260503180025 | 15 | 1 | 3.2 | 11.3 | 0.00 | 0.00 | 0.00 | 41 | 1021.2 |
| 20260503174517 | 15 | 1 | 1.6 | 14.5 | 0.00 | 0.00 | 0.00 | 43 | 1021.5 |
| 20260503173030 | 16 | 1 | 1.6 | 9.7 | 0.00 | 0.00 | 0.00 | 44 | 1021.7 |
| 20260503171514 | 16 | 1 | 0.0 | 9.7 | 0.00 | 0.00 | 0.00 | 45 | 1021.8 |
| 20260503100104 | 4 | 1 | 0.0 | 0.0 | 0.00 | 0.00 | 0.00 | 82 | 1020.6 |
| 20260503081548 | 5 | 1 | 0.0 | 0.0 | 0.00 | 0.00 | 0.00 | 77 | 1019.7 |
| 20260503071539 | 5 | 1 | 0.0 | 0.0 | 0.00 | 0.00 | 0.00 | 76 | 1019.1 |
| 20260503054528 | 6 | 1 | 0.0 | 0.0 | 0.00 | 0.00 | 0.00 | 72 | 1018.9 |
| 20260503053026 | 6 | 1 | 0.0 | 0.0 | 0.00 | 0.00 | 0.00 | 71 | 1019.0 |
| 20260503051528 | 6 | 1 | 0.0 | 1.6 | 0.00 | 0.00 | 0.00 | 71 | 1019.1 |
| 20260503050023 | 6 | 1 | 0.0 | 4.8 | 0.00 | 0.00 | 0.00 | 73 | 1019.0 |
| 20260503044527 | 6 | 1 | 0.0 | 0.0 | 0.00 | 0.00 | 0.00 | 71 | 1019.0 |
| 20260503043020 | 6 | 1 | 0.0 | 3.2 | 0.00 | 0.00 | 0.00 | 71 | 1018.9 |
| 20260503041518 | 7 | 1 | 0.0 | 3.2 | 0.00 | 0.00 | 0.00 | 70 | 1018.7 |